SCP
-0 0 0 0 0 0 0 0 0 0 0 -0 -0 -0 0 0 -0 0 0 0 0 -0 -0 -0 -0 -0 -0 -0 -0 -0 -0 -0 -0 -0 -0 0 0 0 0 0 0 0 0 0 0 0 0 0 0
0 0 0 0 0 0 0 0 0 0 -0 -0 0 0 -0 0 -0 -0 0 0 0 -0 -0 -0 -0 -0 -0 -0 -0 -0 -0 -0 -0 -0 -0 -0 0 0 0 0 0 0 0 0 0 0 0 0 0
-0 0 0 0 -0 -0 0 0 0 0 0 0 0 0 -0 0 -0 -0 0 -0 -0 -0 -0 -0 -0 -0 -0 -0 -0 -0 -0 -0 -0 -0 -0 -0 0 0 0 0 0 0 0 0 0 0 0 0 0
-0 -0 0 0 0 -0 -0 0 -0 0 0 0 0 -0 0 0 0 0 0 -0 -0 -0 -0 -0 -0 0 0 -0 -0 -0 -0 -0 -0 -0 -0 0 0 0 0 0 0 0 0 0 0 0 0 0 0
0 0 0 0 -0 0 0 0 0 0 0 0 0 0 0 0 0 0 0 -0 -0 -0 -0 -0 -0 -0 0 0 0 0 0 -0 -0 0 0 0 0 0 0 0 0 0 0 0 0 0 0 0 0
0 0 0 0 0 0 0 0 0 0 0 0 0 0 0 0 0 0 0 0 -0 -0 -0 -0 -0 -0 0 0 0 0 0 0 0 0 0 0 0 0 0 0 0 0 0 0 0 0 0 0 0
0 0 0 0 0 0 0 0 0 0 0 0 0 0 0 0 0 0 0 0 0 0 -0 -0 -0 -0 0 0 0 0 0 0 0 0 0 0 0 0 0 0 0 0 0 0 0 0 0 0 0
0 0 0 0 0 0 0 0 0 0 0 0 0 0 0 0 0 0 0 0 0 0 0 -0 -0 -0 -0 -0 0 0 0 0 0 0 0 0 0 0 0 0 0 0 0 0 0 0 0 0 0
0 0 0 0 0 0 0 0 0 0 0 0 0 0 0 0 0 0 0 0 0 0 0 0 0 0 -0 0 0 0 0 0 0 0 0 0 0 0 0 0 0 0 0 0 0 0 0 0 0
0 0 0 0 0 0 0 0 0 0 0 0 0 0 0 0 0 0 0 0 0 0 0 0 0 0 0 0 0 0 0 0 0 0 0 0 0 0 0 0 0 0 0 0 0 0 0 0 0
0 0 0 0 0 0 0 0 0 0 0 0 0 0 0 0 0 0 0 0 0 0 0 0 0 0 0 0 0 0 0 0 0 0 0 0 0 0 0 0 0 0 0 0 0 0 0 0 0
0 0 0 0 0 0 0 0 0 0 0 0 -0 0 0 0 0 0 0 0 0 0 0 0 0 0 0 0 0 0 0 0 0 0 0 0 0 0 0 0 0 0 0 0 0 0 0 0 0
0 0 0 0 0 0 0 0 0 0 0 0 0 0 0 0 0 0 0 0 0 0 0 0 0 0 0 0 0 0 0 0 0 0 0 0 0 0 0 0 0 0 0 0 0 0 0 0 0
0 0 0 0 0 0 0 0 0 0 0 0 0 0 0 0 0 0 0 0 0 0 0 0 0 0 0 0 0 0 0 0 0 0 0 0 0 0 0 0 0 0 0 0 0 0 0 0 0
0 0 0 0 0 0 0 0 0 0 0 0 0 0 0 0 0 0 0 0 0 0 0 0 0 0 0 0 0 0 0 0 0 0 0 0 0 0 0 0 0 0 0 0 0 0 0 0 0
0 0 0 0 0 0 0 0 0 0 0 0 0 0 0 0 0 0 0 0 0 0 0 0 0 0 0 0 0 0 0 0 0 0 0 0 0 0 0 0 0 0 0 0 0 0 0 0 0
0 0 0 0 0 0 0 0 0 0 0 0 0 0 0 0 0 0 0 0 0 0 0 0 0 0 0 0 0 0 0 0 0 0 0 0 0 0 0 0 0 0 0 0 0 0 0 0 0
0 0 0 0 0 0 0 0 0 0 0 0 0 0 0 0 0 0 0 0 0 0 0 0 0 0 0 0 0 0 0 0 0 0 0 0 0 0 0 0 0 0 0 0 0 0 0 0 0
0 0 0 0 0 0 0 0 0 0 0 -0 0 0 0 0 0 0 0 0 0 0 0 0 0 0 0 0 0 0 0 0 0 0 0 0 0 0 0 0 0 0 0 0 0 0 0 0 0
0 0 0 0 0 0 0 0 0 -0 -0 0 0 0 0 0 0 0 0 0 0 0 0 0 0 0 0 0 0 0 0 0 0 0 0 0 0 0 0 0 0 0 0 0 0 0 0 0 0
0 0 0 0 0 0 0 0 0 0 -0 0 0 0 0 0 0 0 0 0 0 0 0 0 0 0 0 0 0 0 0 0 0 0 0 0 0 0 0 0 0 0 0 0 0 0 0 0 0
0 0 0 0 0 0 0 0 0 0 0 0 0 0 0 0 0 0 0 0 0 0 0 0 0 0 0 0 0 0 0 0 0 0 0 0 0 0 0 0 0 0 0 0 0 0 0 0 0
0 0 0 0 0 0 0 0 0 0 0 0 0 0 0 0 0 0 0 0 0 0 0 0 0 0 0 0 0 0 0 0 0 0 0 0 0 0 0 0 0 0 0 0 0 0 0 0 0
0 0 0 0 0 0 0 0 0 0 0 0 0 0 0 0 0 0 0 0 0 0 0 0 0 0 0 0 0 0 0 0 0 0 0 0 0 0 0 0 0 0 0 0 0 0 0 0 0
0 0 0 0 0 0 0 0 0 0 0 0 0 0 0 0 0 0 0 0 0 0 0 0 0 0 0 0 0 0 0 0 0 0 0 0 0 0 0 0 0 0 0 0 0 0 0 0 0
0 0 0 0 0 0 0 0 0 0 0 0 0 0 0 0 0 0 0 0 0 -0 -0 -0 -0 -0 0 0 0 0 0 0 0 0 0 0 0 0 0 0 0 0 0 0 0 0 0 0 0
0 0 0 0 0 0 0 0 0 0 0 0 0 0 0 0 0 0 -0 -0 -0 -0 -0 -0 -0 -0 -0 -0 -0 -0 -0 0 0 0 0 0 0 0 0 0 0 0 0 0 0 0 0 0 0
0 0 0 0 0 0 0 0 0 0 0 0 0 0 0 0 0 0 -0 -0 -0 -0 -0 -0 -0 -0 -0 -0 -0 -0 -0 -0 0 0 0 0 0 0 0 0 0 0 0 0 0 0 0 0 0
0 0 0 0 0 0 0 0 0 0 0 0 0 0 0 0 0 -0 -0 -0 0 0 0 0 0 0 0 0 -0 -0 -0 -0 -0 -0 0 0 0 0 -0 0 0 0 0 0 0 0 0 0 0
0 0 0 0 0 0 0 0 0 0 0 0 0 0 0 -0 -0 -0 -0 0 0 0 0 0 0 0 0 0 0 0 0 -0 -0 -0 0 0 0 0 -0 -0 -0 0 0 0 0 0 0 0 0
Wind_Speed_500mb
13 13 13 11 11 7 9 4 6 5 3 6 5 10 17 20 15 8 5 5 12 25 35 39 40 39 37 35 33 30 29 26 24 22 19 19 19 20 16 14 15 16 13 11 11 12 11 9 9
9 9 9 13 9 10 11 6 2 13 11 9 8 11 13 16 5 6 7 10 14 24 34 38 41 40 38 37 36 33 28 26 25 24 24 24 24 22 20 19 19 21 20 16 16 17 16 15 12
4 3 10 7 7 11 12 4 6 8 10 10 8 7 12 6 3 2 10 9 19 23 32 34 39 40 38 38 38 34 29 27 26 25 27 25 22 21 23 22 23 26 24 20 20 18 16 15 12
3 5 10 10 12 11 8 16 14 17 3 6 9 16 8 12 2 14 11 12 22 26 32 35 37 41 40 38 38 35 32 28 28 26 32 34 27 23 23 23 25 24 21 22 21 18 17 13 9
4 8 9 10 13 6 9 13 11 13 9 7 9 7 8 14 16 22 22 18 22 28 33 36 38 42 44 41 40 38 35 33 33 37 37 33 29 23 22 25 24 24 23 21 18 16 11 7 5
10 8 11 11 11 5 6 3 7 11 9 5 9 21 13 11 7 11 14 18 22 29 34 38 40 42 45 47 45 42 40 40 42 41 44 33 30 26 25 26 24 22 21 21 18 13 11 8 6
13 9 15 16 17 12 5 4 9 10 11 11 9 11 6 11 9 14 15 17 23 31 36 40 41 46 48 49 49 46 45 47 48 46 38 33 30 27 27 27 25 23 23 21 17 14 12 9 8
9 8 11 10 10 17 8 7 7 13 18 4 7 10 10 15 16 23 22 20 25 32 38 42 44 49 52 52 52 50 51 52 49 45 42 37 32 29 29 28 28 27 26 22 20 17 14 12 11
4 10 17 18 13 6 6 13 8 11 24 26 24 29 21 29 37 34 28 29 31 36 41 43 47 48 52 54 56 56 56 56 55 54 48 41 36 35 35 32 31 29 27 26 23 21 18 16 15
14 15 20 11 18 17 25 20 30 28 30 41 39 39 32 42 41 37 36 34 38 40 42 46 49 50 51 50 50 62 64 64 62 62 55 47 43 41 40 38 35 34 32 32 29 26 22 21 19
12 18 25 23 28 30 29 32 38 33 33 46 33 21 25 28 43 43 42 39 38 40 46 48 51 53 56 58 61 60 64 67 69 68 59 52 49 48 45 43 40 39 37 35 32 29 27 24 20
19 33 37 31 19 18 31 40 38 36 57 56 53 47 43 39 43 41 42 39 40 41 45 50 55 59 61 63 66 66 65 69 70 68 61 59 55 54 49 49 46 46 43 42 37 33 29 26 23
28 34 35 31 31 37 40 54 40 50 58 61 54 46 42 40 39 38 38 38 38 44 46 53 57 62 65 67 68 66 69 70 72 68 65 66 62 60 57 56 53 52 49 49 44 41 37 34 30
26 27 41 48 45 41 35 50 40 41 33 36 36 39 39 35 32 32 35 36 37 33 38 48 57 60 65 70 70 72 70 71 70 70 68 70 67 66 64 61 59 57 56 53 49 46 44 41 36
23 28 34 48 53 25 17 25 28 43 34 38 42 41 38 42 45 41 38 38 38 46 43 43 45 55 63 68 70 70 70 68 70 69 70 73 70 70 69 67 64 61 60 58 56 53 49 44 40
19 22 21 11 9 4 14 31 33 16 17 36 57 64 66 61 49 44 42 40 38 37 43 44 45 46 56 61 67 71 73 74 70 70 72 75 73 75 78 74 72 68 67 66 64 61 57 51 47
25 26 32 31 30 3 20 26 24 53 57 68 69 64 54 52 39 33 28 26 26 24 26 33 37 41 41 52 61 66 69 74 74 71 74 75 78 79 83 82 79 75 75 72 71 69 63 60 55
31 40 40 33 34 22 31 45 38 54 56 64 70 59 47 38 22 15 14 10 8 6 10 16 23 27 34 41 51 60 61 69 73 78 82 82 83 82 84 87 86 82 80 78 76 71 67 65 59
40 42 47 43 40 45 43 42 40 52 63 58 56 40 25 18 15 17 25 29 27 27 25 17 9 8 15 27 37 47 57 66 72 78 82 83 86 85 88 91 93 91 88 84 80 75 73 68 63
35 42 42 41 32 33 42 43 49 38 44 32 26 21 15 18 32 35 35 35 40 42 39 35 28 20 12 7 19 29 37 45 57 65 73 78 84 89 91 94 98 100 94 91 89 87 86 78 78
40 44 42 46 37 35 28 35 19 19 39 15 11 20 32 44 38 39 40 40 37 40 38 35 32 28 24 20 17 20 28 38 48 49 61 68 73 84 92 97 98 104 103 102 99 97 97 91 87
31 21 17 23 20 18 21 16 35 21 10 29 38 40 46 40 40 42 43 43 40 38 32 30 27 25 23 21 19 18 21 28 32 37 48 52 62 65 77 90 99 105 111 109 108 105 103 99 100
19 10 17 23 26 33 24 15 9 10 23 25 31 42 44 42 40 41 41 38 37 38 38 36 32 30 30 26 20 18 17 23 31 31 38 50 56 61 62 73 84 98 112 116 114 114 114 112 109
6 15 25 28 16 16 23 27 10 7 13 17 40 37 34 33 33 33 31 34 42 44 43 40 37 37 35 36 32 28 28 28 32 35 37 43 51 56 60 60 73 82 94 111 117 116 117 117 115
14 15 13 13 15 18 4 14 22 16 2 21 26 26 27 27 29 32 36 39 40 42 45 46 46 44 42 40 38 39 42 41 39 37 37 38 52 56 61 60 61 70 79 92 106 115 121 121 121
21 14 9 12 21 30 29 16 18 17 39 30 28 27 25 26 24 26 27 29 34 39 45 46 49 48 45 43 40 39 41 43 45 48 47 44 47 50 55 65 62 61 64 74 88 104 117 123 123
4 12 16 22 27 15 19 33 30 7 22 25 23 19 23 25 25 25 24 27 26 33 38 44 43 40 41 46 52 51 45 44 46 46 46 48 52 57 48 58 66 68 60 65 78 92 104 117 123
9 5 7 9 9 25 29 31 25 20 21 11 15 22 24 26 31 33 35 36 40 43 41 40 44 47 49 51 54 53 47 44 46 51 52 50 50 54 52 54 62 64 66 63 68 81 92 104 116
8 11 12 9 11 15 27 24 20 23 15 10 13 21 27 30 32 36 37 39 39 43 48 48 49 51 53 56 57 56 56 53 49 47 51 55 57 56 52 51 58 64 61 65 69 76 82 94 105
32 33 34 28 24 18 24 35 31 10 15 12 9 7 13 19 23 24 25 28 31 35 39 41 45 48 50 53 55 57 56 59 61 60 53 51 56 60 63 57 58 59 59 64 66 77 81 87 98
Wind_Direction_500mb
297 306 316 293 262 227 272 87 346 291 276 34 318 293 336 315 312 358 6 251 197 191 202 199 202 202 198 196 193 192 197 201 207 208 207 207 211 213 212 220 231 249 264 281 293 291 296 294 287
291 301 293 284 259 272 70 52 247 35 13 318 280 266 273 292 305 277 319 252 205 194 199 203 205 208 205 203 203 203 205 202 201 197 203 216 227 213 219 228 239 253 261 274 278 283 292 289 281
297 275 273 278 288 337 346 38 343 331 308 276 282 263 303 297 286 256 268 265 212 199 201 207 206 209 206 206 206 206 206 212 221 216 215 231 234 231 233 234 237 246 260 271 276 281 284 280 274
290 242 235 256 304 329 296 327 340 304 240 233 270 272 237 253 220 241 274 264 217 209 203 211 206 209 208 208 210 209 210 212 214 223 234 241 249 242 235 234 239 251 260 266 274 281 280 278 270
282 251 261 253 283 286 305 304 294 278 291 247 219 266 273 287 277 275 274 266 225 216 209 214 208 211 210 205 211 210 209 207 217 230 239 242 243 235 236 241 248 255 260 262 266 269 263 256 246
242 276 255 284 342 312 266 313 282 258 267 233 244 264 269 250 300 314 291 260 235 222 218 216 212 212 213 211 212 215 212 212 220 229 237 238 238 237 240 248 250 250 252 259 260 241 226 221 224
276 265 280 291 288 284 234 173 237 310 284 256 251 266 253 232 273 299 296 264 240 226 225 220 218 215 214 215 218 219 212 213 221 231 250 244 242 242 245 247 245 245 249 249 239 230 228 230 235
276 275 270 237 289 293 166 199 260 276 292 246 233 251 260 192 281 292 282 257 244 231 229 223 224 220 216 215 216 216 215 219 229 236 251 248 245 243 242 239 239 242 243 236 229 229 232 236 239
247 257 272 273 269 281 176 269 209 265 274 264 249 264 292 274 285 279 272 258 247 237 234 229 225 223 220 219 218 218 220 224 231 237 245 243 238 239 239 236 238 237 234 229 225 225 227 229 233
225 247 277 299 291 282 299 281 286 286 273 274 261 257 258 281 274 270 264 260 251 247 245 237 231 227 222 219 221 222 225 228 232 238 242 237 232 235 234 234 233 231 227 223 223 223 223 226 229
218 247 273 294 281 289 287 285 276 263 272 270 284 288 286 267 270 267 259 254 249 253 246 247 239 232 228 222 224 229 226 231 234 237 240 234 229 229 230 234 232 231 226 226 224 221 223 227 231
262 251 270 282 283 286 275 287 282 269 269 278 284 287 283 269 261 263 261 257 251 242 244 247 241 239 234 230 230 231 231 231 235 237 235 234 229 231 231 234 233 231 229 228 228 228 232 234 237
247 273 279 283 273 267 277 272 269 272 272 281 283 281 274 269 268 265 262 260 252 245 242 246 247 240 239 237 235 236 233 236 238 242 235 234 233 232 231 230 231 230 228 228 228 228 229 232 234
306 291 283 280 275 267 263 273 285 271 281 283 287 282 276 268 266 262 259 267 271 269 261 252 248 248 242 239 239 240 237 237 239 241 239 240 236 235 236 235 234 232 230 229 228 227 227 227 229
288 296 294 278 262 244 266 265 244 272 271 286 291 285 274 281 283 274 269 263 262 266 264 263 262 253 246 244 243 240 242 239 242 242 241 242 237 238 239 238 236 235 233 230 228 228 228 228 228
280 282 285 321 102 190 202 280 295 346 324 295 291 289 288 291 288 282 276 267 260 251 256 259 256 256 251 249 249 247 245 246 243 246 245 244 242 240 241 240 238 237 236 233 230 230 228 228 230
244 269 281 292 303 236 217 292 303 305 302 294 289 287 294 297 298 293 290 272 263 257 251 250 251 253 253 250 246 249 249 247 247 246 247 247 248 242 241 242 242 240 238 234 231 229 227 226 225
288 295 296 291 295 258 270 284 288 290 291 280 283 294 301 304 319 322 336 322 305 277 246 237 248 248 250 248 247 246 247 251 250 249 250 251 251 247 244 244 244 241 240 236 232 231 228 227 225
284 286 284 291 295 290 293 298 299 290 285 279 288 300 309 341 18 35 58 56 53 55 62 60 32 329 288 271 262 258 252 253 255 256 254 251 252 250 247 245 244 243 242 240 237 232 229 225 223
283 280 283 288 297 312 294 294 287 281 267 286 313 338 15 85 84 65 56 51 58 64 60 57 53 45 27 307 281 265 263 264 264 265 263 257 254 254 249 246 245 246 243 240 236 232 229 226 227
273 281 291 294 309 293 301 282 258 270 286 337 19 77 92 97 74 60 55 54 58 55 53 49 44 38 27 11 338 303 281 269 268 266 266 268 262 257 255 251 246 246 246 243 241 237 234 229 227
286 307 314 306 313 301 354 294 304 280 310 84 90 90 94 71 62 51 44 47 48 48 49 50 44 39 35 27 13 346 312 297 290 287 281 275 270 263 259 258 252 247 247 245 244 241 238 233 233
273 342 309 297 284 288 274 245 269 274 126 112 81 84 76 67 58 45 45 45 42 45 46 47 42 34 24 19 18 7 336 316 313 296 275 279 279 277 268 261 259 252 249 247 245 243 238 236 236
312 280 274 261 267 262 265 227 280 99 121 118 94 81 70 63 57 55 48 39 33 34 33 33 33 29 20 11 4 0 346 328 315 311 295 280 280 281 280 270 264 259 253 251 247 245 244 240 237
226 259 305 283 228 261 39 311 258 305 354 91 102 86 74 70 62 46 36 32 27 23 22 18 18 15 8 1 352 353 344 333 323 312 301 292 285 283 284 284 274 267 260 254 252 248 246 243 240
204 255 215 268 281 293 315 264 258 213 96 110 106 99 76 55 45 39 31 22 14 11 9 6 7 2 1 357 352 2 348 339 332 321 308 295 284 276 278 285 286 280 268 260 253 247 249 248 245
84 232 279 262 280 281 248 267 266 194 108 115 105 82 54 38 32 30 23 24 18 13 12 8 1 357 355 356 356 3 354 347 343 338 329 310 296 291 287 281 284 282 278 268 259 253 249 247 247
246 356 243 210 240 255 266 267 269 193 157 94 51 27 19 12 9 8 6 4 5 6 3 1 358 355 352 351 352 353 347 347 343 340 340 339 327 303 291 286 284 276 279 275 266 259 253 247 248
203 241 222 296 191 260 269 268 35 50 73 67 28 17 2 357 357 356 353 351 348 347 347 347 345 343 341 341 345 343 340 339 340 340 335 333 334 335 319 295 280 281 278 276 270 265 260 252 248
268 265 264 250 244 226 253 262 290 355 104 69 19 5 347 342 341 343 348 351 353 349 345 345 343 340 338 338 338 338 337 337 338 338 337 333 326 326 332 325 301 286 278 276 269 264 264 258 250
Wind_Speed_850mb
13 13 13 11 11 7 9 4 6 5 3 6 5 10 17 20 15 8 5 5 12 25 35 39 40 39 37 35 33 30 29 26 24 22 19 19 19 20 16 14 15 16 13 11 11 12 11 9 9
9 9 9 13 9 10 11 6 2 13 11 9 8 11 13 16 5 6 7 10 14 24 34 38 41 40 38 37 36 33 28 26 25 24 24 24 24 22 20 19 19 21 20 16 16 17 16 15 12
4 3 10 7 7 11 12 4 6 8 10 10 8 7 12 6 3 2 10 9 19 23 32 34 39 40 38 38 38 34 29 27 26 25 27 25 22 21 23 22 23 26 24 20 20 18 16 15 12
3 5 10 10 12 11 8 16 14 17 3 6 9 16 8 12 2 14 11 12 22 26 32 35 37 41 40 38 38 35 32 28 28 26 32 34 27 23 23 23 25 24 21 22 21 18 17 13 9
4 8 9 10 13 6 9 13 11 13 9 7 9 7 8 14 16 22 22 18 22 28 33 36 38 42 44 41 40 38 35 33 33 37 37 33 29 23 22 25 24 24 23 21 18 16 11 7 5
10 8 11 11 11 5 6 3 7 11 9 5 9 21 13 11 7 11 14 18 22 29 34 38 40 42 45 47 45 42 40 40 42 41 44 33 30 26 25 26 24 22 21 21 18 13 11 8 6
13 9 15 16 17 12 5 4 9 10 11 11 9 11 6 11 9 14 15 17 23 31 36 40 41 46 48 49 49 46 45 47 48 46 38 33 30 27 27 27 25 23 23 21 17 14 12 9 8
9 8 11 10 10 17 8 7 7 13 18 4 7 10 10 15 16 23 22 20 25 32 38 42 44 49 52 52 52 50 51 52 49 45 42 37 32 29 29 28 28 27 26 22 20 17 14 12 11
4 10 17 18 13 6 6 13 8 11 24 26 24 29 21 29 37 34 28 29 31 36 41 43 47 48 52 54 56 56 56 56 55 54 48 41 36 35 35 32 31 29 27 26 23 21 18 16 15
14 15 20 11 18 17 25 20 30 28 30 41 39 39 32 42 41 37 36 34 38 40 42 46 49 50 51 50 50 62 64 64 62 62 55 47 43 41 40 38 35 34 32 32 29 26 22 21 19
12 18 25 23 28 30 29 32 38 33 33 46 33 21 25 28 43 43 42 39 38 40 46 48 51 53 56 58 61 60 64 67 69 68 59 52 49 48 45 43 40 39 37 35 32 29 27 24 20
19 33 37 31 19 18 31 40 38 36 57 56 53 47 43 39 43 41 42 39 40 41 45 50 55 59 61 63 66 66 65 69 70 68 61 59 55 54 49 49 46 46 43 42 37 33 29 26 23
28 34 35 31 31 37 40 54 40 50 58 61 54 46 42 40 39 38 38 38 38 44 46 53 57 62 65 67 68 66 69 70 72 68 65 66 62 60 57 56 53 52 49 49 44 41 37 34 30
26 27 41 48 45 41 35 50 40 41 33 36 36 39 39 35 32 32 35 36 37 33 38 48 57 60 65 70 70 72 70 71 70 70 68 70 67 66 64 61 59 57 56 53 49 46 44 41 36
23 28 34 48 53 25 17 25 28 43 34 38 42 41 38 42 45 41 38 38 38 46 43 43 45 55 63 68 70 70 70 68 70 69 70 73 70 70 69 67 64 61 60 58 56 53 49 44 40
19 22 21 11 9 4 14 31 33 16 17 36 57 64 66 61 49 44 42 40 38 37 43 44 45 46 56 61 67 71 73 74 70 70 72 75 73 75 78 74 72 68 67 66 64 61 57 51 47
25 26 32 31 30 3 20 26 24 53 57 68 69 64 54 52 39 33 28 26 26 24 26 33 37 41 41 52 61 66 69 74 74 71 74 75 78 79 83 82 79 75 75 72 71 69 63 60 55
31 40 40 33 34 22 31 45 38 54 56 64 70 59 47 38 22 15 14 10 8 6 10 16 23 27 34 41 51 60 61 69 73 78 82 82 83 82 84 87 86 82 80 78 76 71 67 65 59
40 42 47 43 40 45 43 42 40 52 63 58 56 40 25 18 15 17 25 29 27 27 25 17 9 8 15 27 37 47 57 66 72 78 82 83 86 85 88 91 93 91 88 84 80 75 73 68 63
35 42 42 41 32 33 42 43 49 38 44 32 26 21 15 18 32 35 35 35 40 42 39 35 28 20 12 7 19 29 37 45 57 65 73 78 84 89 91 94 98 100 94 91 89 87 86 78 78
40 44 42 46 37 35 28 35 19 19 39 15 11 20 32 44 38 39 40 40 37 40 38 35 32 28 24 20 17 20 28 38 48 49 61 68 73 84 92 97 98 104 103 102 99 97 97 91 87
31 21 17 23 20 18 21 16 35 21 10 29 38 40 46 40 40 42 43 43 40 38 32 30 27 25 23 21 19 18 21 28 32 37 48 52 62 65 77 90 99 105 111 109 108 105 103 99 100
19 10 17 23 26 33 24 15 9 10 23 25 31 42 44 42 40 41 41 38 37 38 38 36 32 30 30 26 20 18 17 23 31 31 38 50 56 61 62 73 84 98 112 116 114 114 114 112 109
6 15 25 28 16 16 23 27 10 7 13 17 40 37 34 33 33 33 31 34 42 44 43 40 37 37 35 36 32 28 28 28 32 35 37 43 51 56 60 60 73 82 94 111 117 116 117 117 115
14 15 13 13 15 18 4 14 22 16 2 21 26 26 27 27 29 32 36 39 40 42 45 46 46 44 42 40 38 39 42 41 39 37 37 38 52 56 61 60 61 70 79 92 106 115 121 121 121
21 14 9 12 21 30 29 16 18 17 39 30 28 27 25 26 24 26 27 29 34 39 45 46 49 48 45 43 40 39 41 43 45 48 47 44 47 50 55 65 62 61 64 74 88 104 117 123 123
4 12 16 22 27 15 19 33 30 7 22 25 23 19 23 25 25 25 24 27 26 33 38 44 43 40 41 46 52 51 45 44 46 46 46 48 52 57 48 58 66 68 60 65 78 92 104 117 123
9 5 7 9 9 25 29 31 25 20 21 11 15 22 24 26 31 33 35 36 40 43 41 40 44 47 49 51 54 53 47 44 46 51 52 50 50 54 52 54 62 64 66 63 68 81 92 104 116
8 11 12 9 11 15 27 24 20 23 15 10 13 21 27 30 32 36 37 39 39 43 48 48 49 51 53 56 57 56 56 53 49 47 51 55 57 56 52 51 58 64 61 65 69 76 82 94 105
32 33 34 28 24 18 24 35 31 10 15 12 9 7 13 19 23 24 25 28 31 35 39 41 45 48 50 53 55 57 56 59 61 60 53 51 56 60 63 57 58 59 59 64 66 77 81 87 98
Wind_Direction_850mb
297 306 316 293 262 227 272 87 346 291 276 34 318 293 336 315 312 358 6 251 197 191 202 199 202 202 198 196 193 192 197 201 207 208 207 207 211 213 212 220 231 249 264 281 293 291 296 294 287
291 301 293 284 259 272 70 52 247 35 13 318 280 266 273 292 305 277 319 252 205 194 199 203 205 208 205 203 203 203 205 202 201 197 203 216 227 213 219 228 239 253 261 274 278 283 292 289 281
297 275 273 278 288 337 346 38 343 331 308 276 282 263 303 297 286 256 268 265 212 199 201 207 206 209 206 206 206 206 206 212 221 216 215 231 234 231 233 234 237 246 260 271 276 281 284 280 274
290 242 235 256 304 329 296 327 340 304 240 233 270 272 237 253 220 241 274 264 217 209 203 211 206 209 208 208 210 209 210 212 214 223 234 241 249 242 235 234 239 251 260 266 274 281 280 278 270
282 251 261 253 283 286 305 304 294 278 291 247 219 266 273 287 277 275 274 266 225 216 209 214 208 211 210 205 211 210 209 207 217 230 239 242 243 235 236 241 248 255 260 262 266 269 263 256 246
242 276 255 284 342 312 266 313 282 258 267 233 244 264 269 250 300 314 291 260 235 222 218 216 212 212 213 211 212 215 212 212 220 229 237 238 238 237 240 248 250 250 252 259 260 241 226 221 224
276 265 280 291 288 284 234 173 237 310 284 256 251 266 253 232 273 299 296 264 240 226 225 220 218 215 214 215 218 219 212 213 221 231 250 244 242 242 245 247 245 245 249 249 239 230 228 230 235
276 275 270 237 289 293 166 199 260 276 292 246 233 251 260 192 281 292 282 257 244 231 229 223 224 220 216 215 216 216 215 219 229 236 251 248 245 243 242 239 239 242 243 236 229 229 232 236 239
247 257 272 273 269 281 176 269 209 265 274 264 249 264 292 274 285 279 272 258 247 237 234 229 225 223 220 219 218 218 220 224 231 237 245 243 238 239 239 236 238 237 234 229 225 225 227 229 233
225 247 277 299 291 282 299 281 286 286 273 274 261 257 258 281 274 270 264 260 251 247 245 237 231 227 222 219 221 222 225 228 232 238 242 237 232 235 234 234 233 231 227 223 223 223 223 226 229
218 247 273 294 281 289 287 285 276 263 272 270 284 288 286 267 270 267 259 254 249 253 246 247 239 232 228 222 224 229 226 231 234 237 240 234 229 229 230 234 232 231 226 226 224 221 223 227 231
262 251 270 282 283 286 275 287 282 269 269 278 284 287 283 269 261 263 261 257 251 242 244 247 241 239 234 230 230 231 231 231 235 237 235 234 229 231 231 234 233 231 229 228 228 228 232 234 237
247 273 279 283 273 267 277 272 269 272 272 281 283 281 274 269 268 265 262 260 252 245 242 246 247 240 239 237 235 236 233 236 238 242 235 234 233 232 231 230 231 230 228 228 228 228 229 232 234
306 291 283 280 275 267 263 273 285 271 281 283 287 282 276 268 266 262 259 267 271 269 261 252 248 248 242 239 239 240 237 237 239 241 239 240 236 235 236 235 234 232 230 229 228 227 227 227 229
288 296 294 278 262 244 266 265 244 272 271 286 291 285 274 281 283 274 269 263 262 266 264 263 262 253 246 244 243 240 242 239 242 242 241 242 237 238 239 238 236 235 233 230 228 228 228 228 228
280 282 285 321 102 190 202 280 295 346 324 295 291 289 288 291 288 282 276 267 260 251 256 259 256 256 251 249 249 247 245 246 243 246 245 244 242 240 241 240 238 237 236 233 230 230 228 228 230
244 269 281 292 303 236 217 292 303 305 302 294 289 287 294 297 298 293 290 272 263 257 251 250 251 253 253 250 246 249 249 247 247 246 247 247 248 242 241 242 242 240 238 234 231 229 227 226 225
288 295 296 291 295 258 270 284 288 290 291 280 283 294 301 304 319 322 336 322 305 277 246 237 248 248 250 248 247 246 247 251 250 249 250 251 251 247 244 244 244 241 240 236 232 231 228 227 225
284 286 284 291 295 290 293 298 299 290 285 279 288 300 309 341 18 35 58 56 53 55 62 60 32 329 288 271 262 258 252 253 255 256 254 251 252 250 247 245 244 243 242 240 237 232 229 225 223
283 280 283 288 297 312 294 294 287 281 267 286 313 338 15 85 84 65 56 51 58 64 60 57 53 45 27 307 281 265 263 264 264 265 263 257 254 254 249 246 245 246 243 240 236 232 229 226 227
273 281 291 294 309 293 301 282 258 270 286 337 19 77 92 97 74 60 55 54 58 55 53 49 44 38 27 11 338 303 281 269 268 266 266 268 262 257 255 251 246 246 246 243 241 237 234 229 227
286 307 314 306 313 301 354 294 304 280 310 84 90 90 94 71 62 51 44 47 48 48 49 50 44 39 35 27 13 346 312 297 290 287 281 275 270 263 259 258 252 247 247 245 244 241 238 233 233
273 342 309 297 284 288 274 245 269 274 126 112 81 84 76 67 58 45 45 45 42 45 46 47 42 34 24 19 18 7 336 316 313 296 275 279 279 277 268 261 259 252 249 247 245 243 238 236 236
312 280 274 261 267 262 265 227 280 99 121 118 94 81 70 63 57 55 48 39 33 34 33 33 33 29 20 11 4 0 346 328 315 311 295 280 280 281 280 270 264 259 253 251 247 245 244 240 237
226 259 305 283 228 261 39 311 258 305 354 91 102 86 74 70 62 46 36 32 27 23 22 18 18 15 8 1 352 353 344 333 323 312 301 292 285 283 284 284 274 267 260 254 252 248 246 243 240
204 255 215 268 281 293 315 264 258 213 96 110 106 99 76 55 45 39 31 22 14 11 9 6 7 2 1 357 352 2 348 339 332 321 308 295 284 276 278 285 286 280 268 260 253 247 249 248 245
84 232 279 262 280 281 248 267 266 194 108 115 105 82 54 38 32 30 23 24 18 13 12 8 1 357 355 356 356 3 354 347 343 338 329 310 296 291 287 281 284 282 278 268 259 253 249 247 247
246 356 243 210 240 255 266 267 269 193 157 94 51 27 19 12 9 8 6 4 5 6 3 1 358 355 352 351 352 353 347 347 343 340 340 339 327 303 291 286 284 276 279 275 266 259 253 247 248
203 241 222 296 191 260 269 268 35 50 73 67 28 17 2 357 357 356 353 351 348 347 347 347 345 343 341 341 345 343 340 339 340 340 335 333 334 335 319 295 280 281 278 276 270 265 260 252 248
268 265 264 250 244 226 253 262 290 355 104 69 19 5 347 342 341 343 348 351 353 349 345 345 343 340 338 338 338 338 337 337 338 338 337 333 326 326 332 325 301 286 278 276 269 264 264 258 250